TimeEDT,TemperatureF,Dew PointF,Humidity,Sea Level PressureIn,VisibilityMPH,Wind Direction,Wind SpeedMPH,Gust SpeedMPH,PrecipitationIn,Events,Conditions,WindDirDegrees,DateUTC
12:35 AM,71.6,71.6,100,29.89,5.0,SW,3.5,-,N/A,,Scattered Clouds,220,2012-09-30 04:35:00
12:55 AM,71.6,71.6,100,29.89,10.0,WSW,3.5,-,N/A,,Scattered Clouds,250,2012-09-30 04:55:00
1:15 AM,71.6,71.6,100,29.88,10.0,Calm,Calm,-,N/A,,Mostly Cloudy,0,2012-09-30 05:15:00
1:55 AM,71.6,71.6,100,29.89,10.0,North,5.8,-,N/A,,Overcast,10,2012-09-30 05:55:00
2:15 AM,71.6,71.6,100,29.90,7.0,Calm,Calm,-,N/A,,Light Drizzle,0,2012-09-30 06:15:00
2:35 AM,71.6,71.6,100,29.89,7.0,Calm,Calm,-,N/A,,Overcast,0,2012-09-30 06:35:00
2:55 AM,71.6,71.6,100,29.89,4.0,Calm,Calm,-,N/A,,Mostly Cloudy,0,2012-09-30 06:55:00
3:15 AM,69.8,69.8,100,29.88,3.0,Calm,Calm,-,N/A,,Mostly Cloudy,0,2012-09-30 07:15:00
3:35 AM,69.8,69.8,100,29.88,4.0,Calm,Calm,-,N/A,,Overcast,0,2012-09-30 07:35:00
3:55 AM,69.8,69.8,100,29.88,3.0,Calm,Calm,-,N/A,,Overcast,0,2012-09-30 07:55:00
4:15 AM,69.8,69.8,100,29.88,5.0,Calm,Calm,-,N/A,,Overcast,0,2012-09-30 08:15:00
4:35 AM,69.8,69.8,100,29.87,5.0,Calm,Calm,-,N/A,,Overcast,0,2012-09-30 08:35:00
4:55 AM,69.8,69.8,100,29.87,5.0,Calm,Calm,-,N/A,,Mostly Cloudy,0,2012-09-30 08:55:00
5:15 AM,69.8,69.8,100,29.87,3.0,Calm,Calm,-,N/A,,Scattered Clouds,0,2012-09-30 09:15:00
5:35 AM,69.8,69.8,100,29.87,5.0,Calm,Calm,-,N/A,,Scattered Clouds,0,2012-09-30 09:35:00
5:55 AM,69.8,69.8,100,29.86,5.0,Calm,Calm,-,N/A,,Scattered Clouds,0,2012-09-30 09:55:00
6:15 AM,69.8,69.8,100,29.87,5.0,Calm,Calm,-,N/A,,Clear,0,2012-09-30 10:15:00
6:35 AM,69.8,69.8,100,29.87,5.0,Calm,Calm,-,N/A,,Clear,0,2012-09-30 10:35:00
6:55 AM,69.8,69.8,100,29.87,7.0,Calm,Calm,-,N/A,,Clear,0,2012-09-30 10:55:00
7:15 AM,69.8,69.8,100,29.87,7.0,Calm,Calm,-,N/A,,Clear,0,2012-09-30 11:15:00
7:35 AM,69.8,69.8,100,29.88,4.0,Calm,Calm,-,N/A,,Scattered Clouds,0,2012-09-30 11:35:00
7:55 AM,69.8,69.8,100,29.88,4.0,Calm,Calm,-,N/A,,Scattered Clouds,0,2012-09-30 11:55:00
8:15 AM,69.8,69.8,100,29.89,4.0,Calm,Calm,-,N/A,,Scattered Clouds,0,2012-09-30 12:15:00
8:35 AM,69.8,69.8,100,29.89,5.0,Calm,Calm,-,N/A,,Mostly Cloudy,0,2012-09-30 12:35:00
8:55 AM,71.6,71.6,100,29.89,5.0,Calm,Calm,-,N/A,,Scattered Clouds,0,2012-09-30 12:55:00
9:15 AM,71.6,71.6,100,29.90,7.0,Calm,Calm,-,N/A,,Scattered Clouds,0,2012-09-30 13:15:00
9:35 AM,71.6,71.6,100,29.90,10.0,Calm,Calm,-,N/A,,Scattered Clouds,0,2012-09-30 13:35:00
9:55 AM,73.4,73.4,100,29.90,10.0,Calm,Calm,-,N/A,,Mostly Cloudy,0,2012-09-30 13:55:00
10:15 AM,75.2,73.4,94,29.90,10.0,Calm,Calm,-,N/A,,Mostly Cloudy,0,2012-09-30 14:15:00
10:35 AM,77.0,73.4,89,29.89,10.0,Calm,Calm,-,N/A,,Scattered Clouds,0,2012-09-30 14:35:00
10:55 AM,78.8,73.4,83,29.89,10.0,Calm,Calm,-,N/A,,Scattered Clouds,0,2012-09-30 14:55:00
11:15 AM,78.8,73.4,83,29.89,10.0,Calm,Calm,-,N/A,,Scattered Clouds,0,2012-09-30 15:15:00
11:35 AM,78.8,73.4,83,29.89,10.0,Calm,Calm,-,N/A,,Scattered Clouds,0,2012-09-30 15:35:00
11:55 AM,78.8,73.4,83,29.88,10.0,Calm,Calm,-,N/A,,Scattered Clouds,0,2012-09-30 15:55:00
12:35 PM,80.6,73.4,79,29.88,10.0,Calm,Calm,-,N/A,,Scattered Clouds,0,2012-09-30 16:35:00
12:55 PM,80.6,73.4,79,29.87,10.0,Calm,Calm,-,N/A,,Clear,0,2012-09-30 16:55:00
1:15 PM,80.6,73.4,79,29.87,10.0,SSE,3.5,-,N/A,,Scattered Clouds,150,2012-09-30 17:15:00
1:35 PM,80.6,73.4,79,29.86,10.0,Calm,Calm,-,N/A,,Scattered Clouds,0,2012-09-30 17:35:00
1:55 PM,82.4,73.4,74,29.85,10.0,Calm,Calm,-,N/A,,Scattered Clouds,0,2012-09-30 17:55:00
2:15 PM,82.4,73.4,74,29.84,10.0,Calm,Calm,-,N/A,,Mostly Cloudy,0,2012-09-30 18:15:00
2:35 PM,82.4,73.4,74,29.83,10.0,Calm,Calm,-,N/A,,Scattered Clouds,0,2012-09-30 18:35:00
2:55 PM,82.4,73.4,74,29.82,10.0,ENE,3.5,-,N/A,,Clear,70,2012-09-30 18:55:00
3:15 PM,82.4,75.2,79,29.82,10.0,ENE,4.6,-,N/A,,Scattered Clouds,70,2012-09-30 19:15:00
3:35 PM,82.4,75.2,79,29.81,10.0,ENE,3.5,-,N/A,,Mostly Cloudy,60,2012-09-30 19:35:00
4:15 PM,82.4,75.2,79,29.81,10.0,ENE,5.8,-,N/A,,Scattered Clouds,70,2012-09-30 20:15:00
4:35 PM,80.6,75.2,84,29.82,10.0,SSE,12.7,17.3,N/A,,Mostly Cloudy,160,2012-09-30 20:35:00
4:55 PM,71.6,71.6,100,29.83,0.5,South,8.1,19.6,N/A,Rain,Heavy Rain,190,2012-09-30 20:55:00
5:15 PM,71.6,71.6,100,29.84,7.0,Calm,Calm,-,N/A,Rain,Light Rain,0,2012-09-30 21:15:00
5:35 PM,71.6,71.6,100,29.83,3.0,Calm,Calm,-,N/A,Rain,Heavy Rain,0,2012-09-30 21:35:00
5:55 PM,71.6,71.6,100,29.83,7.0,Calm,Calm,-,N/A,Rain-Thunderstorm,Light Thunderstorms and Rain,0,2012-09-30 21:55:00
6:15 PM,71.6,71.6,100,29.82,7.0,East,4.6,-,N/A,,Overcast,90,2012-09-30 22:15:00
6:35 PM,71.6,71.6,100,29.82,7.0,ESE,3.5,-,N/A,,Overcast,120,2012-09-30 22:35:00
6:55 PM,71.6,71.6,100,29.82,7.0,East,3.5,-,N/A,,Mostly Cloudy,100,2012-09-30 22:55:00
7:15 PM,71.6,71.6,100,29.82,7.0,Calm,Calm,-,N/A,,Scattered Clouds,0,2012-09-30 23:15:00
7:35 PM,71.6,71.6,100,29.82,7.0,Calm,Calm,-,N/A,,Mostly Cloudy,0,2012-09-30 23:35:00
8:15 PM,71.6,71.6,100,29.82,7.0,Calm,Calm,-,N/A,,Light Drizzle,0,2012-10-01 00:15:00
8:35 PM,71.6,71.6,100,29.82,7.0,Calm,Calm,-,N/A,,Scattered Clouds,0,2012-10-01 00:35:00
8:55 PM,71.6,71.6,100,29.82,4.0,Calm,Calm,-,N/A,,Clear,0,2012-10-01 00:55:00
9:15 PM,71.6,71.6,100,29.82,5.0,Calm,Calm,-,N/A,,Clear,0,2012-10-01 01:15:00
9:35 PM,69.8,69.8,100,29.83,4.0,Calm,Calm,-,N/A,,Clear,0,2012-10-01 01:35:00
9:55 PM,71.6,71.6,100,29.83,4.0,Calm,Calm,-,N/A,,Scattered Clouds,0,2012-10-01 01:55:00
10:15 PM,71.6,71.6,100,29.83,4.0,Calm,Calm,-,N/A,,Scattered Clouds,0,2012-10-01 02:15:00
10:35 PM,71.6,71.6,100,29.84,7.0,Calm,Calm,-,N/A,,Scattered Clouds,0,2012-10-01 02:35:00
11:15 PM,71.6,71.6,100,29.84,5.0,Calm,Calm,-,N/A,,Mostly Cloudy,0,2012-10-01 03:15:00
11:35 PM,71.6,71.6,100,29.83,5.0,Calm,Calm,-,N/A,,Overcast,0,2012-10-01 03:35:00
11:55 PM,69.8,69.8,100,29.83,4.0,Calm,Calm,-,N/A,,Mostly Cloudy,0,2012-10-01 03:55:00